Wind_Speed
10 10 9 9 8 8 9 10 11 11 12 12 12 12 13 13 12 12 12 11 10 9 9 9 8 9 9 9 8 8 9 9 9 10 10 10 10 11 12 13 13 13 14
10 9 9 9 9 9 10 10 11 11 11 12 12 11 12 13 12 11 11 11 10 9 8 7 7 8 8 8 8 8 9 9 9 9 10 10 10 10 10 11 12 12 13
10 9 9 10 10 11 10 10 11 11 11 11 12 12 11 11 11 11 10 11 11 9 8 7 6 6 6 6 7 7 7 8 8 8 8 9 9 10 10 10 11 12 13
11 10 10 10 11 12 11 12 11 11 11 11 12 12 12 12 11 11 11 10 9 9 8 6 6 6 6 6 6 6 6 7 7 7 8 8 9 10 10 11 11 11 12
11 12 11 11 12 13 13 12 12 12 11 11 12 12 12 12 11 11 11 10 9 8 7 6 6 5 5 5 6 6 6 6 6 6 7 8 8 9 10 10 10 11 11
11 12 11 11 13 14 13 13 12 12 12 12 12 12 12 12 12 11 11 10 9 9 7 6 5 4 4 5 5 5 5 5 6 6 7 7 8 8 9 10 10 10 11
11 11 11 11 13 14 14 14 14 13 13 13 12 12 12 12 12 11 11 10 9 9 8 7 5 4 4 4 4 4 5 5 5 6 6 7 7 8 8 9 10 11 11
10 10 11 10 11 14 15 14 14 14 14 13 13 12 12 11 12 11 11 10 9 8 7 7 6 5 5 4 4 4 4 4 5 6 6 6 7 8 8 9 10 10 11
9 8 9 10 11 14 15 15 14 14 14 14 14 13 13 12 12 12 11 10 9 8 7 7 6 5 5 4 4 5 5 5 5 6 7 7 8 8 9 10 10 11 11
9 9 9 10 12 14 16 15 15 14 15 15 14 14 13 13 13 12 12 11 10 9 8 7 6 6 5 5 5 5 5 6 6 7 7 8 8 9 10 11 12 12 13
10 10 11 12 13 14 15 16 15 14 14 15 15 15 14 13 13 12 12 11 10 9 8 8 7 7 6 5 5 6 6 7 7 8 8 9 10 11 11 12 13 14 14
11 11 12 13 14 15 15 15 15 15 15 15 15 15 15 14 13 13 12 12 11 10 9 9 9 8 7 7 7 7 7 8 8 9 10 10 11 12 12 13 14 15 15
12 12 12 13 15 16 16 16 15 15 15 15 15 15 15 14 14 13 13 12 11 11 10 10 9 9 8 8 8 9 9 9 9 10 11 11 12 13 14 14 15 16 17
14 14 14 14 16 17 17 17 16 15 15 15 15 15 15 15 14 14 13 12 12 11 11 11 10 10 10 10 10 10 10 10 11 11 12 13 14 14 15 16 16 17 18
15 16 16 16 17 19 19 18 17 17 16 16 16 16 15 15 14 14 13 13 12 12 12 12 12 12 12 12 11 11 12 12 13 13 14 15 16 16 17 17 18 19 20
16 17 18 19 19 20 20 19 18 17 17 16 16 16 15 15 14 14 14 14 13 13 13 13 13 14 14 14 14 13 14 14 15 16 16 17 18 18 19 20 21 21 22
18 19 19 20 21 21 21 20 19 19 18 17 17 17 17 16 16 15 15 15 15 15 15 15 15 15 16 16 16 16 16 17 17 18 19 20 20 21 21 22 23 24 25
18 19 20 20 22 22 22 22 21 20 19 19 19 19 18 18 17 17 17 17 17 17 17 17 17 17 17 17 17 18 18 19 20 20 21 22 23 23 24 25 25 26 27
19 19 20 20 22 23 23 23 22 21 20 20 19 19 19 19 19 19 19 19 19 19 19 19 19 19 19 19 20 20 20 21 22 23 23 24 24 26 27 27 28 29 30
20 21 21 21 22 23 23 22 22 21 21 21 20 20 20 20 20 21 21 22 21 21 21 21 21 21 21 22 22 22 23 24 25 25 26 26 27 28 29 30 31 32 33
21 22 23 23 23 23 23 22 22 21 22 22 21 21 21 21 21 22 23 23 23 23 23 23 23 24 24 25 25 25 25 26 27 28 28 29 30 31 32 33 34 35 36
22 23 24 24 24 24 23 22 22 23 23 22 22 22 23 23 22 23 23 24 24 24 25 25 25 26 26 27 28 28 28 29 29 31 32 33 34 35 35 36 37 38 39
22 23 23 24 24 24 24 23 23 24 24 23 23 23 24 24 24 25 25 25 25 26 26 27 27 28 28 28 29 30 31 31 32 33 34 35 36 37 38 39 40 40 41
22 22 23 23 23 23 23 23 24 24 25 24 25 24 25 24 25 25 25 26 27 27 28 29 29 29 30 31 31 32 33 34 35 36 36 37 39 40 40 41 42 43 44
23 23 23 23 23 24 25 25 25 26 26 26 26 26 26 26 26 26 27 27 28 29 30 31 31 31 32 33 34 34 35 36 37 39 39 40 41 42 43 44 44 45 46
25 25 24 24 24 24 25 26 27 27 27 27 27 28 28 28 28 28 28 28 29 30 31 32 33 33 33 34 35 36 37 38 40 41 41 42 43 43 44 44 45 45 46
Wind_Direction
284 279 267 254 244 222 212 205 203 202 203 207 206 208 210 210 212 216 220 222 223 223 231 237 239 244 248 252 254 255 258 261 262 262 261 264 265 263 263 264 262 263 263
281 273 258 244 231 220 210 205 200 200 201 204 204 206 207 206 209 213 215 215 215 224 230 230 239 244 246 247 250 255 258 259 262 264 265 264 265 266 265 264 264 263 263
277 265 248 242 231 219 211 201 199 204 203 202 203 201 201 202 204 205 210 208 211 218 223 225 232 236 239 243 248 256 259 261 263 266 269 269 267 268 266 266 265 265 264
269 258 243 233 226 218 209 203 200 199 202 203 203 198 200 199 199 201 204 204 206 212 216 220 221 222 231 241 246 254 260 263 265 268 271 271 271 271 273 271 269 267 267
265 254 244 236 226 216 206 198 197 198 199 200 198 198 200 199 197 199 200 201 203 205 209 209 211 217 228 236 242 248 255 262 266 269 274 274 275 275 279 278 274 272 270
265 252 243 234 221 212 205 200 197 198 199 197 196 199 201 200 199 199 200 201 201 206 207 204 205 210 221 229 234 243 253 263 269 274 276 276 278 280 282 282 280 277 274
259 247 236 228 215 209 204 200 199 200 200 198 199 200 200 201 199 199 199 199 200 205 207 204 207 213 225 231 237 246 254 261 269 276 278 279 280 282 285 287 286 283 280
260 245 230 222 212 208 206 202 198 199 200 201 201 200 200 197 196 197 197 197 198 202 202 204 210 215 223 233 242 251 259 266 273 279 284 286 285 287 288 288 289 289 287
249 235 220 218 214 209 204 199 198 200 201 201 200 200 200 198 199 200 199 199 201 203 204 207 214 222 230 238 248 258 265 270 277 283 286 289 290 291 292 291 291 291 291
240 231 224 221 215 210 205 202 202 202 202 201 202 200 200 200 201 201 201 201 204 205 209 213 218 228 237 245 253 262 269 271 277 284 288 292 293 294 295 294 292 291 291
235 232 228 225 217 213 208 202 201 203 204 203 201 200 203 203 203 204 205 207 209 211 216 220 228 236 242 249 258 267 275 277 280 284 288 291 294 297 296 296 295 292 291
232 230 228 223 216 214 209 204 204 205 205 204 203 204 205 205 207 210 212 212 213 219 224 230 237 242 248 256 263 270 275 279 283 285 289 292 294 296 298 298 297 295 294
235 231 225 222 217 217 212 208 207 206 206 205 205 206 207 209 211 214 215 217 220 225 231 237 242 247 254 261 266 269 274 280 285 289 292 295 297 297 298 298 298 297 297
233 231 229 226 220 215 213 211 212 210 208 208 208 208 211 214 216 219 221 224 227 232 238 242 247 251 257 263 267 270 275 280 286 292 295 298 299 298 297 297 297 297 297
230 228 228 225 219 216 214 213 213 211 211 211 212 213 216 217 219 223 226 229 234 238 242 246 250 253 259 263 266 271 276 281 286 291 294 295 296 296 296 297 298 297 297
231 227 227 225 222 219 215 212 212 214 214 214 214 215 217 219 223 228 232 237 240 244 248 252 254 257 260 264 267 271 275 280 284 288 291 293 294 295 296 297 297 299 299
232 230 228 225 222 219 217 214 215 217 217 218 220 221 223 225 229 233 237 241 245 249 254 257 258 260 262 265 268 272 276 280 284 287 290 292 294 295 296 297 297 298 299
227 227 224 223 221 219 218 217 218 219 220 222 224 226 227 229 233 236 240 244 248 252 255 258 260 262 265 268 271 275 278 281 284 286 289 291 293 293 294 296 297 297 297
225 222 222 221 221 219 221 221 220 222 223 225 227 228 230 232 236 240 244 247 250 253 256 260 262 265 267 270 274 276 279 282 284 286 288 291 291 292 294 295 296 297 297
224 223 224 224 223 223 224 222 221 224 226 228 230 232 234 237 241 244 247 249 252 255 258 262 264 266 267 271 274 277 279 281 283 286 288 290 290 291 293 294 295 296 296
226 226 228 227 227 226 226 225 224 226 228 230 233 235 238 241 245 247 250 252 254 257 261 264 266 267 269 271 275 277 280 282 284 286 287 288 290 291 292 294 295 296 296
231 229 229 228 227 226 227 227 228 229 232 234 238 240 241 245 248 250 253 256 258 261 264 266 268 270 272 275 277 278 280 282 284 286 288 289 290 292 293 293 294 296 296
230 227 225 227 227 228 228 228 230 232 235 238 241 243 245 247 250 253 257 259 263 265 266 269 272 272 274 277 278 279 281 282 285 287 288 290 291 292 293 293 294 296 297
224 223 223 225 228 230 228 229 232 236 238 241 243 247 249 251 253 257 260 262 264 265 268 271 273 274 275 277 279 280 281 282 284 285 287 290 291 292 294 294 295 295 296
224 223 223 227 231 233 233 234 236 239 241 244 246 249 253 255 256 260 264 266 267 269 271 272 274 275 276 277 278 280 282 284 285 286 288 290 291 293 293 293 294 295 297
224 225 228 230 232 235 237 238 239 242 245 248 249 252 255 258 259 261 264 267 268 270 272 273 275 277 279 280 280 281 282 283 285 287 288 290 291 292 293 293 295 296 297
Height
5835 5834 5834 5834 5835 5836 5837 5839 5841 5843 5845 5847 5849 5851 5853 5856 5858 5860 5862 5863 5865 5866 5867 5869 5870 5871 5873 5873 5874 5875 5876 5876 5877 5877 5878 5878 5879 5879 5880 5880 5880 5881 5881
5832 5831 5831 5831 5832 5834 5836 5837 5840 5842 5843 5845 5847 5849 5851 5854 5856 5858 5860 5861 5863 5865 5866 5867 5869 5870 5871 5872 5873 5873 5874 5874 5875 5875 5876 5876 5877 5877 5877 5877 5878 5878 5878
5829 5829 5829 5829 5830 5832 5834 5836 5838 5840 5842 5844 5846 5848 5850 5852 5854 5857 5859 5860 5862 5863 5864 5866 5867 5868 5869 5870 5871 5871 5872 5872 5873 5873 5874 5874 5874 5874 5874 5874 5875 5875 5875
5826 5827 5827 5828 5829 5831 5833 5835 5836 5838 5841 5843 5845 5847 5849 5851 5853 5855 5857 5859 5860 5862 5863 5864 5866 5867 5868 5868 5869 5870 5870 5870 5871 5871 5871 5872 5872 5872 5872 5872 5872 5872 5872
5824 5825 5825 5826 5827 5829 5831 5833 5835 5837 5839 5842 5844 5846 5848 5850 5852 5854 5856 5858 5859 5861 5862 5863 5864 5865 5866 5867 5868 5868 5868 5869 5869 5869 5869 5869 5869 5869 5869 5869 5869 5869 5869
5822 5822 5823 5823 5824 5827 5829 5831 5833 5836 5838 5840 5843 5845 5847 5849 5851 5853 5855 5857 5858 5860 5861 5862 5863 5864 5865 5866 5866 5867 5867 5867 5868 5868 5868 5867 5867 5867 5867 5867 5866 5866 5866
5819 5819 5820 5821 5822 5825 5827 5829 5832 5834 5837 5839 5842 5844 5846 5848 5850 5852 5854 5855 5857 5859 5860 5861 5862 5863 5864 5864 5865 5865 5865 5866 5866 5866 5866 5866 5865 5865 5865 5864 5864 5863 5863
5816 5816 5818 5819 5821 5823 5826 5828 5830 5833 5835 5838 5840 5843 5845 5847 5849 5851 5853 5855 5856 5858 5859 5860 5861 5862 5863 5863 5863 5864 5864 5864 5864 5864 5864 5864 5863 5863 5863 5862 5862 5861 5860
5814 5815 5816 5818 5820 5822 5824 5826 5829 5831 5834 5836 5839 5842 5844 5846 5848 5850 5852 5854 5855 5857 5858 5859 5860 5861 5861 5862 5862 5862 5863 5863 5863 5863 5862 5862 5862 5861 5860 5860 5859 5859 5858
5813 5814 5816 5817 5819 5820 5822 5825 5827 5830 5832 5835 5837 5840 5842 5845 5847 5848 5850 5852 5854 5855 5857 5858 5859 5859 5860 5860 5860 5861 5861 5861 5861 5861 5861 5860 5860 5859 5858 5857 5857 5856 5855
5811 5812 5814 5816 5817 5819 5820 5823 5826 5828 5831 5833 5836 5838 5841 5843 5845 5847 5849 5851 5853 5854 5855 5856 5857 5858 5858 5858 5859 5859 5859 5859 5859 5859 5858 5858 5857 5856 5856 5855 5854 5853 5852
5809 5810 5811 5813 5815 5817 5820 5822 5825 5827 5830 5832 5834 5837 5839 5841 5844 5846 5847 5849 5851 5852 5854 5855 5855 5856 5856 5856 5857 5857 5857 5857 5857 5856 5856 5855 5854 5853 5852 5851 5850 5849 5848
5807 5808 5810 5811 5813 5816 5818 5821 5823 5825 5828 5830 5833 5835 5838 5840 5842 5844 5846 5847 5849 5850 5852 5852 5853 5854 5854 5854 5855 5855 5855 5854 5854 5854 5853 5852 5851 5850 5849 5848 5847 5845 5844
5804 5806 5808 5809 5811 5813 5816 5819 5821 5824 5826 5829 5831 5833 5836 5838 5840 5842 5844 5845 5847 5848 5849 5850 5851 5851 5852 5852 5852 5852 5852 5851 5851 5850 5850 5849 5848 5847 5845 5844 5843 5841 5840
5801 5803 5805 5806 5808 5811 5813 5816 5819 5822 5824 5827 5829 5831 5834 5836 5838 5840 5842 5843 5844 5845 5846 5847 5848 5848 5849 5849 5849 5849 5849 5848 5848 5847 5846 5845 5844 5842 5841 5840 5838 5837 5835
5797 5799 5801 5803 5806 5808 5811 5814 5816 5819 5822 5824 5827 5829 5831 5833 5835 5837 5839 5841 5842 5843 5843 5844 5845 5845 5845 5845 5845 5845 5845 5844 5844 5843 5842 5841 5839 5838 5836 5835 5833 5831 5829
5793 5795 5798 5800 5802 5805 5808 5811 5814 5816 5819 5821 5824 5826 5828 5831 5833 5834 5836 5837 5838 5839 5840 5841 5841 5841 5841 5841 5841 5841 5841 5840 5839 5838 5837 5836 5834 5833 5831 5829 5827 5825 5823
5789 5791 5793 5796 5798 5801 5804 5807 5810 5813 5816 5818 5821 5823 5825 5827 5829 5831 5832 5833 5834 5835 5836 5837 5837 5837 5837 5837 5837 5836 5836 5835 5834 5832 5831 5830 5828 5826 5824 5823 5821 5818 5816
5785 5787 5789 5792 5794 5797 5801 5804 5807 5809 5812 5814 5817 5819 5821 5823 5825 5827 5828 5829 5830 5831 5831 5832 5832 5832 5832 5832 5831 5831 5830 5829 5828 5826 5825 5823 5822 5820 5818 5816 5813 5811 5808
5781 5784 5786 5788 5791 5794 5797 5800 5803 5805 5808 5811 5813 5815 5816 5818 5820 5822 5823 5824 5825 5826 5826 5827 5827 5827 5826 5826 5825 5824 5824 5822 5821 5820 5818 5816 5814 5812 5810 5808 5805 5802 5799
5777 5780 5782 5785 5788 5790 5793 5796 5799 5801 5804 5806 5808 5810 5812 5813 5815 5816 5817 5818 5819 5820 5820 5821 5821 5820 5820 5819 5819 5817 5816 5815 5814 5812 5810 5808 5806 5804 5802 5799 5796 5793 5790
5772 5775 5778 5781 5784 5787 5789 5792 5794 5796 5798 5801 5803 5805 5806 5808 5809 5810 5811 5812 5813 5814 5814 5814 5814 5814 5813 5813 5811 5810 5809 5808 5806 5804 5802 5800 5798 5795 5792 5790 5787 5783 5780
5766 5769 5772 5776 5779 5782 5784 5787 5789 5791 5793 5795 5797 5799 5801 5802 5803 5804 5805 5805 5806 5807 5807 5807 5807 5806 5806 5805 5803 5802 5801 5799 5797 5795 5793 5791 5788 5785 5783 5779 5776 5773 5769
5761 5764 5767 5771 5774 5777 5779 5782 5783 5785 5788 5790 5792 5793 5795 5796 5797 5798 5799 5799 5799 5799 5799 5799 5799 5798 5797 5796 5795 5794 5792 5790 5788 5786 5783 5781 5778 5775 5772 5769 5765 5761 5758
5756 5759 5762 5765 5768 5771 5773 5775 5777 5779 5782 5784 5785 5787 5788 5789 5790 5791 5791 5791 5791 5791 5792 5791 5790 5789 5789 5787 5786 5784 5782 5780 5778 5775 5773 5770 5767 5764 5761 5757 5753 5749 5746
5750 5754 5756 5759 5762 5765 5767 5769 5771 5773 5775 5777 5779 5780 5780 5781 5782 5783 5783 5783 5783 5783 5783 5782 5782 5780 5779 5778 5776 5774 5772 5770 5767 5765 5762 5759 5756 5752 5749 5745 5741 5738 5734